ETD7BR EDDF-OMAA

Flight info

Callsign ETD7BR
Flight time N/A
Altitude 35000
Route CINDY6F CINDY Z74 LAMPU DCT NOMBO Y161 MAH DCT LATLO DCT OBEDI DCT KFT DCT OLEZE DCT TEBLI DCT BOSNA DCT MODRA DCT MEDUX UM867 KOGAT DCT ERANA DCT TSL UN130 MES UL609 RDS DCT VANZA DCT RASDA/N0489F370 A16 CVO L315 HGD M872 BDB Y214 RAPMA DCT KUVSO DCT KATIT DCT DANUX DCT TANSU/N0469F330 G783 VAVIM P899 ROVOS
Aircraft B77W/H-SDE1E2E3FGHIJ2J3J4J5M1RWXY/LB1D1

Departure

Time 2026-04-19 04:54
Airport Frankfurt Main Airport (EDDF)

Arrival

Time N/A
Airport Zayed International Airport (OMAA)
Time Latitude Longitude Altitude Speed Heading
2026-04-19 04:38 50.04939 8.58306 323 ft 0 kts 340°
2026-04-19 04:43 50.04922 8.58315 360 ft 4 kts 340°
2026-04-19 04:44 50.04901 8.58325 360 ft 4 kts 10°
2026-04-19 04:44 50.04884 8.58305 360 ft 4 kts 70°
2026-04-19 04:44 50.04878 8.58276 360 ft 0 kts 69°
2026-04-19 04:49 50.04883 8.58294 360 ft 3 kts 69°
2026-04-19 04:49 50.04892 8.58335 360 ft 5 kts 69°
2026-04-19 04:50 50.04906 8.58390 358 ft 6 kts 69°
2026-04-19 04:50 50.04921 8.58452 353 ft 6 kts 69°
2026-04-19 04:50 50.04937 8.58515 358 ft 6 kts 69°
2026-04-19 04:50 50.04952 8.58577 357 ft 6 kts 69°
2026-04-19 04:51 50.04953 8.58640 355 ft 6 kts 117°
2026-04-19 04:51 50.04914 8.58670 359 ft 7 kts 161°
2026-04-19 04:51 50.04866 8.58695 359 ft 8 kts 161°
2026-04-19 04:51 50.04810 8.58729 355 ft 9 kts 158°
2026-04-19 04:52 50.04744 8.58764 360 ft 11 kts 168°
2026-04-19 04:52 50.04664 8.58762 353 ft 12 kts 185°
2026-04-19 04:52 50.04589 8.58720 358 ft 12 kts 218°
2026-04-19 04:52 50.04538 8.58667 359 ft 6 kts 205°
2026-04-19 04:53 50.04503 8.58625 360 ft 6 kts 230°
2026-04-19 04:53 50.04488 8.58581 359 ft 0 kts 247°
2026-04-19 04:53 50.04482 8.58559 358 ft 12 kts 247°
2026-04-19 04:54 50.04389 8.58168 360 ft 74 kts 250°
2026-04-19 04:54 50.04124 8.57064 360 ft 142 kts 249°
2026-04-19 04:54 50.03716 8.55361 422 ft 185 kts 253°
2026-04-19 04:54 50.03260 8.53512 1096 ft 186 kts 254°
2026-04-19 04:55 50.02808 8.51609 1852 ft 183 kts 252°
2026-04-19 04:55 50.01971 8.50027 2328 ft 209 kts 219°
2026-04-19 04:55 50.00522 8.49222 2588 ft 234 kts 197°
2026-04-19 04:55 49.98856 8.49111 3025 ft 252 kts 171°
2026-04-19 04:56 49.97270 8.50457 3544 ft 271 kts 134°
2026-04-19 04:56 49.96254 8.52933 4224 ft 274 kts 119°
2026-04-19 04:56 49.95407 8.55609 5003 ft 276 kts 118°
2026-04-19 04:56 49.94564 8.58266 5795 ft 278 kts 119°
2026-04-19 04:57 49.93920 8.61124 6339 ft 290 kts 99°
2026-04-19 04:57 49.93766 8.64298 6821 ft 298 kts 95°
2026-04-19 04:57 49.93651 8.67497 7594 ft 294 kts 100°
2026-04-19 04:57 49.93017 8.70499 8122 ft 296 kts 127°
2026-04-19 04:58 49.91554 8.72651 8647 ft 286 kts 154°
2026-04-19 04:58 49.89842 8.74209 9444 ft 283 kts 155°
2026-04-19 04:58 49.88211 8.75971 10096 ft 292 kts 142°
2026-04-19 04:58 49.86952 8.78605 10340 ft 319 kts 121°
2026-04-19 04:59 49.85940 8.81777 10542 ft 340 kts 121°
2026-04-19 04:59 49.84825 8.85156 10692 ft 364 kts 121°
2026-04-19 04:59 49.83604 8.88714 10936 ft 385 kts 121°
2026-04-19 04:59 49.82301 8.92398 11533 ft 395 kts 122°
2026-04-19 05:00 49.80950 8.96152 12339 ft 402 kts 122°
2026-04-19 05:00 49.79574 8.99944 13279 ft 406 kts 122°
2026-04-19 05:00 49.78181 9.03763 14214 ft 409 kts 122°
2026-04-19 05:00 49.77250 9.06307 14746 ft 412 kts 122°
2026-04-19 05:01 49.75913 9.10269 15438 ft 417 kts 114°
2026-04-19 05:01 49.75135 9.14660 16058 ft 429 kts 103°
2026-04-19 05:01 49.74390 9.19089 16688 ft 427 kts 115°
2026-04-19 05:01 49.72781 9.22930 17322 ft 427 kts 136°
2026-04-19 05:02 49.70686 9.26191 18230 ft 427 kts 138°
2026-04-19 05:02 49.68610 9.29509 18990 ft 432 kts 136°
2026-04-19 05:02 49.66586 9.32971 19680 ft 437 kts 135°
2026-04-19 05:02 49.64593 9.36473 20338 ft 442 kts 135°
2026-04-19 05:03 49.62441 9.39933 21010 ft 442 kts 142°
2026-04-19 05:03 49.60059 9.42945 21703 ft 443 kts 148°
2026-04-19 05:03 49.57474 9.45520 22336 ft 443 kts 154°
2026-04-19 05:03 49.54787 9.47915 22859 ft 449 kts 155°
2026-04-19 05:04 49.52109 9.50313 23499 ft 453 kts 155°
2026-04-19 05:04 49.49385 9.52775 24070 ft 456 kts 155°
2026-04-19 05:04 49.46646 9.55270 24648 ft 459 kts 155°
2026-04-19 05:04 49.43888 9.57790 25203 ft 461 kts 155°
2026-04-19 05:05 49.41124 9.60315 25715 ft 464 kts 155°
2026-04-19 05:05 49.38342 9.62849 26226 ft 467 kts 155°
2026-04-19 05:05 49.35553 9.65481 26703 ft 473 kts 151°
2026-04-19 05:05 49.32899 9.68520 27153 ft 481 kts 146°
2026-04-19 05:06 49.30429 9.72022 27597 ft 489 kts 140°
2026-04-19 05:06 49.28035 9.75763 28053 ft 492 kts 139°
2026-04-19 05:06 49.25635 9.79510 28481 ft 495 kts 140°
2026-04-19 05:06 49.23210 9.83264 28905 ft 497 kts 139°
2026-04-19 05:07 49.20760 9.87023 29308 ft 499 kts 140°
2026-04-19 05:07 49.18294 9.90781 29682 ft 502 kts 140°
2026-04-19 05:07 49.15812 9.94549 30014 ft 505 kts 140°
2026-04-19 05:07 49.13312 9.98338 30327 ft 506 kts 140°
2026-04-19 05:08 49.10812 10.02126 30741 ft 505 kts 140°
2026-04-19 05:08 49.05888 10.09570 31691 ft 498 kts 140°
2026-04-19 05:08 49.03381 10.13193 32135 ft 496 kts 142°
2026-04-19 05:09 49.00837 10.16728 32506 ft 495 kts 142°
2026-04-19 05:09 48.98291 10.20255 32865 ft 494 kts 142°
2026-04-19 05:09 48.95761 10.23795 33237 ft 494 kts 142°
2026-04-19 05:09 48.93245 10.27339 33629 ft 493 kts 142°
2026-04-19 05:10 48.90731 10.30886 34031 ft 491 kts 142°
2026-04-19 05:10 48.88225 10.34421 34314 ft 491 kts 142°
2026-04-19 05:10 48.85721 10.37942 34538 ft 492 kts 142°
2026-04-19 05:10 48.83202 10.41482 34719 ft 494 kts 141°
2026-04-19 05:11 48.80783 10.45211 34899 ft 497 kts 137°
2026-04-19 05:11 48.76051 10.52959 34985 ft 502 kts 136°
2026-04-19 05:12 48.71297 10.60589 35066 ft 497 kts 138°
2026-04-19 05:12 48.66485 10.68074 35083 ft 497 kts 138°
2026-04-19 05:13 48.61704 10.75644 35076 ft 498 kts 137°
2026-04-19 05:13 48.56946 10.83260 35060 ft 499 kts 137°
2026-04-19 05:14 48.52188 10.90884 35067 ft 499 kts 137°
2026-04-19 05:14 48.47409 10.98489 35050 ft 499 kts 137°
2026-04-19 05:15 48.42595 11.05977 35046 ft 499 kts 138°
2026-04-19 05:15 48.37750 11.13481 35055 ft 499 kts 138°
2026-04-19 05:16 48.32917 11.20975 35057 ft 499 kts 138°
2026-04-19 05:16 48.28110 11.28493 35046 ft 500 kts 135°
2026-04-19 05:17 48.23999 11.36946 35050 ft 505 kts 123°
2026-04-19 05:17 48.20572 11.46156 35055 ft 506 kts 122°
2026-04-19 05:18 48.17136 11.55367 35059 ft 506 kts 122°
2026-04-19 05:18 48.13680 11.64491 35053 ft 506 kts 122°
2026-04-19 05:19 48.10185 11.73640 35065 ft 507 kts 123°
2026-04-19 05:19 48.06675 11.82789 35071 ft 507 kts 123°
2026-04-19 05:20 48.03156 11.91937 35060 ft 508 kts 123°
2026-04-19 05:20 47.99630 12.01076 35065 ft 508 kts 123°
2026-04-19 05:21 47.96091 12.10218 35074 ft 508 kts 123°
2026-04-19 05:21 47.92551 12.19332 35081 ft 508 kts 123°
2026-04-19 05:22 47.88997 12.28449 35080 ft 508 kts 123°
2026-04-19 05:22 47.85437 12.37551 35080 ft 508 kts 123°
2026-04-19 05:23 47.81894 12.46582 35086 ft 508 kts 123°
2026-04-19 05:23 47.78325 12.55645 35090 ft 507 kts 123°
2026-04-19 05:24 47.74750 12.64697 35071 ft 507 kts 123°
2026-04-19 05:24 47.71172 12.73729 35061 ft 507 kts 123°
2026-04-19 05:25 47.67215 12.82337 35078 ft 503 kts 133°
2026-04-19 05:25 47.62383 12.89760 35075 ft 500 kts 139°
2026-04-19 05:26 47.57405 12.96974 35080 ft 501 kts 139°
2026-04-19 05:26 47.52453 13.04225 35078 ft 501 kts 139°
2026-04-19 05:27 47.47507 13.11501 35094 ft 501 kts 139°
2026-04-19 05:27 47.42558 13.18759 35099 ft 501 kts 139°
2026-04-19 05:28 47.37627 13.25965 35105 ft 501 kts 139°
2026-04-19 05:28 47.32672 13.33227 35109 ft 503 kts 137°
2026-04-19 05:29 47.28095 13.41070 35102 ft 505 kts 133°
2026-04-19 05:29 47.23581 13.49034 35105 ft 506 kts 133°
2026-04-19 05:30 47.19051 13.56958 35096 ft 507 kts 133°
2026-04-19 05:30 47.14495 13.64862 35107 ft 507 kts 133°
2026-04-19 05:31 47.09914 13.72772 35111 ft 507 kts 133°
2026-04-19 05:31 47.05364 13.80610 35109 ft 508 kts 133°
2026-04-19 05:32 47.00783 13.88482 35103 ft 507 kts 133°
2026-04-19 05:32 46.96198 13.96336 35118 ft 506 kts 133°
2026-04-19 05:33 46.91620 14.04158 35095 ft 506 kts 133°
2026-04-19 05:33 46.87046 14.11951 35113 ft 504 kts 133°
2026-04-19 05:34 46.82467 14.19729 35113 ft 505 kts 133°
2026-04-19 05:34 46.77882 14.27496 35120 ft 505 kts 133°
2026-04-19 05:35 46.73287 14.35258 35142 ft 505 kts 133°
2026-04-19 05:35 46.68690 14.43002 35131 ft 505 kts 133°
2026-04-19 05:36 46.64117 14.50687 35123 ft 505 kts 133°
2026-04-19 05:36 46.59441 14.58306 35123 ft 504 kts 135°
2026-04-19 05:37 46.54562 14.65623 35127 ft 503 kts 136°
2026-04-19 05:37 46.49675 14.72898 35122 ft 503 kts 136°
2026-04-19 05:38 46.44814 14.80209 35115 ft 503 kts 135°
2026-04-19 05:38 46.39960 14.87534 35100 ft 503 kts 135°
2026-04-19 05:39 46.35112 14.94832 35103 ft 502 kts 135°
2026-04-19 05:39 46.30264 15.02104 35109 ft 502 kts 135°
2026-04-19 05:40 46.25436 15.09325 35110 ft 502 kts 135°
2026-04-19 05:40 46.20566 15.16589 35110 ft 503 kts 135°
2026-04-19 05:41 46.15690 15.23845 35109 ft 504 kts 135°
2026-04-19 05:41 46.10804 15.31095 35109 ft 505 kts 135°
2026-04-19 05:42 46.05973 15.38427 35123 ft 506 kts 134°
2026-04-19 05:42 46.01180 15.45853 35125 ft 506 kts 134°
2026-04-19 05:43 45.96373 15.53274 35130 ft 506 kts 134°
2026-04-19 05:43 45.91557 15.60657 35131 ft 506 kts 134°
2026-04-19 05:44 45.86730 15.68022 35119 ft 506 kts 134°
2026-04-19 05:44 45.81904 15.75367 35122 ft 506 kts 134°
2026-04-19 05:45 45.77062 15.82717 35112 ft 507 kts 134°
2026-04-19 05:45 45.72209 15.90065 35104 ft 507 kts 134°
2026-04-19 05:46 45.67360 15.97386 35095 ft 507 kts 134°
2026-04-19 05:46 45.63326 16.03463 35089 ft 507 kts 134°
2026-04-19 05:47 45.58470 16.10760 35091 ft 507 kts 134°
2026-04-19 05:47 45.53607 16.18048 35098 ft 506 kts 134°
2026-04-19 05:48 45.48745 16.25315 35092 ft 506 kts 134°
2026-04-19 05:48 45.43880 16.32566 35098 ft 506 kts 134°
2026-04-19 05:49 45.39042 16.39759 35097 ft 506 kts 134°
2026-04-19 05:49 45.34167 16.46989 35106 ft 506 kts 134°
2026-04-19 05:50 45.29295 16.54193 35103 ft 506 kts 134°
2026-04-19 05:50 45.24407 16.61406 35103 ft 506 kts 134°
2026-04-19 05:51 45.19518 16.68595 35106 ft 506 kts 135°
2026-04-19 05:51 45.14436 16.75498 35112 ft 506 kts 138°
2026-04-19 05:52 45.09245 16.82227 35103 ft 506 kts 138°
2026-04-19 05:52 45.04059 16.88994 35108 ft 507 kts 137°
2026-04-19 05:53 44.98926 16.95750 35123 ft 507 kts 137°
2026-04-19 05:53 44.93767 17.02549 35126 ft 507 kts 137°
2026-04-19 05:54 44.88599 17.09337 35126 ft 507 kts 137°
2026-04-19 05:54 44.83467 17.16056 35116 ft 507 kts 137°
2026-04-19 05:55 44.78291 17.22814 35128 ft 507 kts 137°
2026-04-19 05:55 44.73117 17.29553 35132 ft 507 kts 137°
2026-04-19 05:56 44.67933 17.36287 35125 ft 507 kts 137°
2026-04-19 05:56 44.62751 17.43002 35121 ft 507 kts 137°
2026-04-19 05:57 44.57572 17.49696 35119 ft 506 kts 137°
2026-04-19 05:57 44.52416 17.56345 35125 ft 506 kts 137°
2026-04-19 05:58 44.47224 17.63022 35119 ft 506 kts 137°
2026-04-19 05:58 44.42031 17.69685 35125 ft 506 kts 137°
2026-04-19 05:59 44.36840 17.76331 35118 ft 506 kts 137°
2026-04-19 05:59 44.31766 17.83175 35128 ft 506 kts 134°
2026-04-19 06:00 44.26793 17.90154 35128 ft 507 kts 134°
2026-04-19 06:00 44.21804 17.97106 35133 ft 507 kts 135°
2026-04-19 06:01 44.16785 18.04027 35134 ft 508 kts 135°
2026-04-19 06:01 44.11747 18.10929 35131 ft 508 kts 135°
2026-04-19 06:02 44.06702 18.17822 35139 ft 508 kts 135°
2026-04-19 06:02 44.01663 18.24693 35147 ft 507 kts 135°
2026-04-19 06:03 43.96623 18.31551 35154 ft 507 kts 135°
2026-04-19 06:03 43.91666 18.38278 35158 ft 507 kts 135°
2026-04-19 06:04 43.86639 18.45084 35142 ft 507 kts 135°
2026-04-19 06:04 43.81584 18.51911 35150 ft 506 kts 135°
2026-04-19 06:05 43.76530 18.58719 35155 ft 507 kts 135°
2026-04-19 06:05 43.71472 18.65515 35151 ft 507 kts 135°
2026-04-19 06:06 43.66405 18.72307 35143 ft 507 kts 135°
2026-04-19 06:06 43.61338 18.79083 35127 ft 507 kts 135°
2026-04-19 06:07 43.56267 18.85847 35139 ft 507 kts 135°
2026-04-19 06:07 43.51189 18.92603 35141 ft 508 kts 135°
2026-04-19 06:08 43.46103 18.99354 35132 ft 507 kts 135°
2026-04-19 06:08 43.41023 19.06079 35145 ft 507 kts 135°
2026-04-19 06:09 43.35933 19.12802 35141 ft 508 kts 135°
2026-04-19 06:09 43.30834 19.19520 35138 ft 508 kts 135°
2026-04-19 06:10 43.25762 19.26188 35136 ft 508 kts 135°
2026-04-19 06:10 43.20653 19.32887 35135 ft 508 kts 135°
2026-04-19 06:11 43.15546 19.39567 35136 ft 508 kts 135°
2026-04-19 06:11 43.10431 19.46241 35155 ft 508 kts 135°
2026-04-19 06:12 43.02757 19.56229 35141 ft 508 kts 135°
2026-04-19 06:12 42.97960 19.63297 35141 ft 505 kts 127°
2026-04-19 06:13 42.93576 19.70786 35142 ft 505 kts 127°
2026-04-19 06:13 42.89164 19.78259 35142 ft 505 kts 127°
2026-04-19 06:14 42.84748 19.85644 35143 ft 506 kts 127°
2026-04-19 06:14 42.80262 19.93114 35140 ft 506 kts 127°
2026-04-19 06:15 42.75830 20.00488 35138 ft 506 kts 127°
2026-04-19 06:15 42.71360 20.07892 35124 ft 506 kts 127°
2026-04-19 06:16 42.66872 20.15298 35141 ft 507 kts 127°
2026-04-19 06:16 42.62388 20.22683 35124 ft 507 kts 127°
2026-04-19 06:17 42.57904 20.30051 35122 ft 506 kts 127°
2026-04-19 06:17 42.53419 20.37407 35118 ft 506 kts 127°
2026-04-19 06:18 42.48922 20.44763 35113 ft 507 kts 128°
2026-04-19 06:18 42.44418 20.52111 35118 ft 507 kts 128°
2026-04-19 06:19 42.39932 20.59412 35118 ft 507 kts 128°
2026-04-19 06:19 42.35413 20.66747 35099 ft 508 kts 128°
2026-04-19 06:20 42.30886 20.74079 35112 ft 508 kts 128°
2026-04-19 06:20 42.26349 20.81408 35128 ft 508 kts 128°
2026-04-19 06:21 42.21804 20.88734 35130 ft 509 kts 128°
2026-04-19 06:21 42.17249 20.96059 35103 ft 509 kts 128°
2026-04-19 06:22 42.12694 21.03364 35104 ft 509 kts 128°
2026-04-19 06:22 42.07796 21.10246 35134 ft 509 kts 135°
2026-04-19 06:23 42.02587 21.16746 35127 ft 512 kts 135°
2026-04-19 06:23 41.97395 21.23226 35124 ft 513 kts 135°
2026-04-19 06:24 41.92167 21.29805 35120 ft 515 kts 134°
2026-04-19 06:24 41.86937 21.36398 35124 ft 516 kts 134°
2026-04-19 06:25 41.81695 21.42991 35120 ft 517 kts 135°
2026-04-19 06:25 41.76446 21.49572 35119 ft 517 kts 135°
2026-04-19 06:26 41.71195 21.56138 35119 ft 516 kts 135°
2026-04-19 06:26 41.65940 21.62696 35113 ft 516 kts 135°
2026-04-19 06:27 41.60694 21.69228 35116 ft 515 kts 135°
2026-04-19 06:27 41.55446 21.75744 35117 ft 515 kts 135°
2026-04-19 06:28 41.50191 21.82257 35125 ft 516 kts 135°
2026-04-19 06:28 41.44922 21.88770 35125 ft 517 kts 135°
2026-04-19 06:29 41.39631 21.95297 35115 ft 519 kts 135°
2026-04-19 06:29 41.34323 22.01829 35113 ft 520 kts 135°
2026-04-19 06:30 41.29033 22.08322 35109 ft 521 kts 135°
2026-04-19 06:30 41.23699 22.14858 35119 ft 522 kts 135°
2026-04-19 06:31 41.18352 22.21395 35108 ft 523 kts 135°
2026-04-19 06:31 41.13764 22.26738 35096 ft 524 kts 138°
2026-04-19 06:32 41.08126 22.32787 35104 ft 524 kts 139°
2026-04-19 06:32 41.02431 22.38845 35097 ft 525 kts 139°
2026-04-19 06:33 40.96748 22.44921 35099 ft 524 kts 139°
2026-04-19 06:33 40.91080 22.50991 35102 ft 525 kts 138°
2026-04-19 06:34 40.85401 22.57062 35098 ft 525 kts 139°
2026-04-19 06:34 40.79713 22.63126 35106 ft 525 kts 139°
2026-04-19 06:35 40.74019 22.69181 35101 ft 526 kts 139°
2026-04-19 06:35 40.68309 22.75239 35104 ft 526 kts 139°
2026-04-19 06:36 40.62603 22.81280 35113 ft 527 kts 139°
2026-04-19 06:36 40.56914 22.87290 35106 ft 528 kts 139°
2026-04-19 06:37 40.51182 22.93333 35102 ft 528 kts 139°
2026-04-19 06:37 40.45475 22.99444 35103 ft 527 kts 135°
2026-04-19 06:38 40.40368 23.06301 35107 ft 524 kts 129°
2026-04-19 06:38 40.35391 23.13289 35115 ft 525 kts 129°
2026-04-19 06:39 40.30366 23.20270 35104 ft 525 kts 130°
2026-04-19 06:39 40.25365 23.27151 35098 ft 525 kts 130°
2026-04-19 06:40 40.20321 23.34061 35096 ft 525 kts 130°
2026-04-19 06:40 40.15271 23.40968 35091 ft 525 kts 130°
2026-04-19 06:41 40.10224 23.47858 35107 ft 525 kts 130°
2026-04-19 06:41 40.05164 23.54752 35097 ft 525 kts 130°
2026-04-19 06:42 40.00103 23.61630 35095 ft 525 kts 130°
2026-04-19 06:42 39.95040 23.68495 35102 ft 525 kts 130°
2026-04-19 06:43 39.89969 23.75357 35115 ft 525 kts 130°
2026-04-19 06:43 39.84890 23.82212 35089 ft 525 kts 130°
2026-04-19 06:44 39.79843 23.89008 35095 ft 525 kts 131°
2026-04-19 06:44 39.74763 23.95834 35095 ft 525 kts 131°
2026-04-19 06:45 39.69668 24.02666 35094 ft 525 kts 131°
2026-04-19 06:45 39.64585 24.09465 35110 ft 525 kts 131°
2026-04-19 06:46 39.59491 24.16264 35091 ft 525 kts 131°
2026-04-19 06:46 39.54389 24.23059 35094 ft 526 kts 131°
2026-04-19 06:47 39.49280 24.29848 35095 ft 526 kts 131°
2026-04-19 06:47 39.44174 24.36618 35095 ft 526 kts 131°
2026-04-19 06:48 39.39092 24.43342 35109 ft 526 kts 131°
2026-04-19 06:48 39.33960 24.50118 35102 ft 527 kts 131°
2026-04-19 06:49 39.28869 24.56912 35093 ft 526 kts 131°
2026-04-19 06:49 39.23799 24.63733 35092 ft 526 kts 131°
2026-04-19 06:50 39.18719 24.70537 35092 ft 526 kts 131°
2026-04-19 06:50 39.13635 24.77322 35087 ft 525 kts 131°
2026-04-19 06:51 39.08568 24.84043 35091 ft 525 kts 132°
2026-04-19 06:51 39.03416 24.90722 35090 ft 525 kts 132°
2026-04-19 06:52 38.98258 24.97371 35077 ft 525 kts 133°
2026-04-19 06:52 38.93105 25.04018 35096 ft 524 kts 133°
2026-04-19 06:53 38.87955 25.10662 35085 ft 524 kts 133°
2026-04-19 06:53 38.82809 25.17287 35081 ft 524 kts 133°
2026-04-19 06:54 38.77669 25.23889 35078 ft 523 kts 133°
2026-04-19 06:54 38.72546 25.30453 35073 ft 523 kts 133°
2026-04-19 06:55 38.67396 25.37040 35085 ft 523 kts 134°
2026-04-19 06:55 38.62247 25.43611 35073 ft 523 kts 134°
2026-04-19 06:56 38.57091 25.50175 35069 ft 522 kts 134°
2026-04-19 06:56 38.51942 25.56717 35064 ft 522 kts 134°
2026-04-19 06:57 38.46786 25.63256 35065 ft 522 kts 134°
2026-04-19 06:57 38.41637 25.69773 35069 ft 522 kts 134°
2026-04-19 06:58 38.36479 25.76288 35045 ft 521 kts 134°
2026-04-19 06:58 38.31384 25.82756 35039 ft 520 kts 134°
2026-04-19 06:59 38.26255 25.89264 35037 ft 520 kts 134°
2026-04-19 06:59 38.20899 25.95450 35043 ft 520 kts 139°
2026-04-19 07:00 38.15417 26.01437 35031 ft 519 kts 139°
2026-04-19 07:00 38.09961 26.07438 35018 ft 518 kts 139°
2026-04-19 07:01 38.04532 26.13423 35028 ft 516 kts 139°
2026-04-19 07:01 37.99148 26.19341 35027 ft 515 kts 139°
2026-04-19 07:02 37.93728 26.25290 35024 ft 515 kts 139°
2026-04-19 07:02 37.88310 26.31227 35023 ft 515 kts 140°
2026-04-19 07:03 37.82888 26.37161 35021 ft 516 kts 140°
2026-04-19 07:03 37.77464 26.43103 34997 ft 516 kts 140°
2026-04-19 07:04 37.72030 26.49046 35004 ft 516 kts 140°
2026-04-19 07:04 37.66587 26.54979 34991 ft 517 kts 140°
2026-04-19 07:05 37.61131 26.60891 34991 ft 517 kts 140°
2026-04-19 07:05 37.55921 26.66524 34976 ft 516 kts 140°
2026-04-19 07:06 37.50408 26.72478 34977 ft 514 kts 141°
2026-04-19 07:06 37.45021 26.78288 34971 ft 513 kts 141°
2026-04-19 07:07 37.39597 26.84143 34971 ft 512 kts 139°
2026-04-19 07:07 37.34397 26.90280 34971 ft 512 kts 137°
2026-04-19 07:08 37.29256 26.96479 34962 ft 512 kts 137°
2026-04-19 07:08 37.24105 27.02660 34959 ft 512 kts 138°
2026-04-19 07:09 37.18944 27.08810 34951 ft 512 kts 138°
2026-04-19 07:09 37.13765 27.14958 34947 ft 512 kts 138°
2026-04-19 07:10 37.08613 27.21063 34939 ft 512 kts 139°
2026-04-19 07:10 37.03436 27.27187 34939 ft 512 kts 139°
2026-04-19 07:11 36.98252 27.33309 34930 ft 512 kts 139°
2026-04-19 07:11 36.93069 27.39416 34903 ft 512 kts 139°
2026-04-19 07:12 36.87889 27.45507 34919 ft 511 kts 139°
2026-04-19 07:12 36.82709 27.51588 34900 ft 511 kts 139°
2026-04-19 07:13 36.77527 27.57660 34900 ft 510 kts 140°
2026-04-19 07:13 36.72354 27.63712 34905 ft 509 kts 140°
2026-04-19 07:14 36.67185 27.69742 34897 ft 509 kts 140°
2026-04-19 07:14 36.62007 27.75769 34850 ft 509 kts 140°
2026-04-19 07:15 36.56859 27.81755 34871 ft 510 kts 140°
2026-04-19 07:16 36.49074 27.90785 34854 ft 510 kts 140°
2026-04-19 07:16 36.43876 27.96800 34857 ft 510 kts 140°
2026-04-19 07:17 36.38692 28.02789 34860 ft 510 kts 140°
2026-04-19 07:17 36.33484 28.08795 34858 ft 510 kts 140°
2026-04-19 07:18 36.28416 28.14977 34836 ft 511 kts 138°
2026-04-19 07:18 36.24283 28.20205 34838 ft 511 kts 138°
2026-04-19 07:19 36.19302 28.26479 34845 ft 510 kts 138°
2026-04-19 07:19 36.14299 28.32709 34847 ft 510 kts 139°
2026-04-19 07:20 36.09284 28.38915 34850 ft 510 kts 139°
2026-04-19 07:20 36.04268 28.45109 34852 ft 509 kts 139°
2026-04-19 07:21 35.99255 28.51290 34836 ft 509 kts 139°
2026-04-19 07:21 35.94242 28.57462 34847 ft 508 kts 140°
2026-04-19 07:22 35.89230 28.63622 34853 ft 508 kts 140°
2026-04-19 07:22 35.84250 28.69730 34847 ft 508 kts 140°
2026-04-19 07:23 35.79236 28.75868 34850 ft 508 kts 140°
2026-04-19 07:23 35.74213 28.82005 34846 ft 508 kts 140°
2026-04-19 07:24 35.69198 28.88121 34852 ft 507 kts 140°
2026-04-19 07:24 35.64182 28.94228 34837 ft 507 kts 140°
2026-04-19 07:25 35.59167 29.00321 34839 ft 506 kts 141°
2026-04-19 07:25 35.54159 29.06395 34847 ft 506 kts 141°
2026-04-19 07:26 35.49173 29.12430 34846 ft 506 kts 141°
2026-04-19 07:26 35.44154 29.18494 34845 ft 506 kts 141°
2026-04-19 07:27 35.39131 29.24552 34843 ft 506 kts 141°
2026-04-19 07:27 35.34106 29.30602 34814 ft 506 kts 141°
2026-04-19 07:28 35.29083 29.36638 34830 ft 506 kts 141°
2026-04-19 07:28 35.24054 29.42669 34845 ft 506 kts 141°
2026-04-19 07:29 35.19021 29.48694 34851 ft 506 kts 141°
2026-04-19 07:29 35.13982 29.54716 34837 ft 506 kts 141°
2026-04-19 07:30 35.08972 29.60693 34837 ft 506 kts 141°
2026-04-19 07:30 35.03926 29.66702 34841 ft 506 kts 141°
2026-04-19 07:31 34.98878 29.72701 34833 ft 506 kts 141°
2026-04-19 07:31 34.93830 29.78691 34839 ft 506 kts 141°
2026-04-19 07:32 34.88777 29.84675 34828 ft 506 kts 141°
2026-04-19 07:32 34.83720 29.90657 34840 ft 507 kts 141°
2026-04-19 07:33 34.78638 29.96597 34839 ft 505 kts 144°
2026-04-19 07:33 34.73052 30.01529 34841 ft 495 kts 155°
2026-04-19 07:34 34.66959 30.05270 34829 ft 490 kts 161°
2026-04-19 07:34 34.60778 30.08803 34839 ft 490 kts 161°
2026-04-19 07:35 34.54607 30.12362 34830 ft 491 kts 161°
2026-04-19 07:35 34.48445 30.15941 34844 ft 491 kts 160°
2026-04-19 07:36 34.42282 30.19525 34842 ft 491 kts 160°
2026-04-19 07:36 34.36116 30.23103 34849 ft 491 kts 160°
2026-04-19 07:37 34.29984 30.26654 34847 ft 491 kts 161°
2026-04-19 07:37 34.23808 30.30225 34853 ft 491 kts 161°
2026-04-19 07:38 34.17640 30.33785 34855 ft 491 kts 161°
2026-04-19 07:38 34.11478 30.37335 34849 ft 491 kts 161°
2026-04-19 07:39 34.05314 30.40881 34862 ft 491 kts 161°
2026-04-19 07:39 33.99141 30.44425 34852 ft 491 kts 161°
2026-04-19 07:40 33.92972 30.47962 34857 ft 492 kts 161°
2026-04-19 07:40 33.86792 30.51502 34848 ft 492 kts 162°
2026-04-19 07:41 33.80610 30.55035 34861 ft 492 kts 162°
2026-04-19 07:41 33.74422 30.58565 34873 ft 492 kts 162°
2026-04-19 07:42 33.68227 30.62094 34870 ft 493 kts 162°
2026-04-19 07:42 33.62074 30.65595 34850 ft 493 kts 162°
2026-04-19 07:43 33.55883 30.69112 34868 ft 492 kts 162°
2026-04-19 07:43 33.49685 30.72625 34883 ft 492 kts 162°
2026-04-19 07:44 33.43489 30.76133 34877 ft 492 kts 162°
2026-04-19 07:44 33.37284 30.79640 34885 ft 492 kts 162°
2026-04-19 07:45 33.31089 30.83137 34884 ft 492 kts 162°
2026-04-19 07:45 33.24898 30.86626 34888 ft 492 kts 162°
2026-04-19 07:46 33.18714 30.90106 34894 ft 491 kts 163°
2026-04-19 07:46 33.12493 30.93438 34894 ft 485 kts 168°
2026-04-19 07:47 33.06104 30.95428 34893 ft 472 kts 179°
2026-04-19 07:47 32.99641 30.96232 34897 ft 466 kts 183°
2026-04-19 07:48 32.93185 30.96900 34897 ft 465 kts 183°
2026-04-19 07:48 32.86728 30.97596 34905 ft 465 kts 183°
2026-04-19 07:49 32.80288 30.98311 34910 ft 464 kts 183°
2026-04-19 07:49 32.73850 30.99029 34912 ft 464 kts 183°
2026-04-19 07:50 32.67423 30.99743 34917 ft 464 kts 183°
2026-04-19 07:50 32.60990 31.00457 34902 ft 464 kts 183°
2026-04-19 07:51 32.54569 31.01169 34914 ft 463 kts 183°
2026-04-19 07:51 32.48152 31.01878 34925 ft 462 kts 184°
2026-04-19 07:52 32.41788 31.02581 34924 ft 462 kts 184°
2026-04-19 07:52 32.35388 31.03286 34907 ft 461 kts 184°
2026-04-19 07:53 32.28995 31.03991 34919 ft 461 kts 184°
2026-04-19 07:53 32.22614 31.04693 34927 ft 460 kts 184°
2026-04-19 07:54 32.16237 31.05393 34928 ft 460 kts 184°
2026-04-19 07:54 32.09859 31.06093 34934 ft 460 kts 184°
2026-04-19 07:55 32.03481 31.06791 34936 ft 459 kts 184°
2026-04-19 07:55 31.97112 31.07487 34933 ft 459 kts 184°
2026-04-19 07:56 31.90743 31.08183 34932 ft 459 kts 184°
2026-04-19 07:56 31.84379 31.08878 34935 ft 459 kts 184°
2026-04-19 07:57 31.78059 31.09566 34936 ft 459 kts 184°
2026-04-19 07:57 31.71687 31.10260 34934 ft 459 kts 184°
2026-04-19 07:58 31.65316 31.10953 34934 ft 459 kts 184°
2026-04-19 07:58 31.58955 31.11644 34927 ft 458 kts 185°
2026-04-19 07:59 31.52605 31.12349 34940 ft 460 kts 183°
2026-04-19 07:59 31.46227 31.13490 34936 ft 464 kts 181°
2026-04-19 08:00 31.39898 31.14689 34905 ft 464 kts 181°
2026-04-19 08:00 31.33535 31.15869 34928 ft 463 kts 181°
2026-04-19 08:01 31.27172 31.17036 34934 ft 463 kts 181°
2026-04-19 08:01 31.20800 31.18210 34931 ft 463 kts 181°
2026-04-19 08:02 31.14428 31.19403 34893 ft 463 kts 181°
2026-04-19 08:02 31.08070 31.20595 34929 ft 462 kts 181°
2026-04-19 08:03 31.01719 31.21781 34928 ft 462 kts 181°
2026-04-19 08:03 30.95413 31.22956 34928 ft 462 kts 181°
2026-04-19 08:04 30.89060 31.24138 34904 ft 462 kts 182°
2026-04-19 08:04 30.82724 31.25317 34927 ft 461 kts 182°
2026-04-19 08:05 30.76390 31.26491 34931 ft 461 kts 182°
2026-04-19 08:05 30.70063 31.27664 34936 ft 460 kts 182°
2026-04-19 08:06 30.63738 31.28835 34910 ft 460 kts 182°
2026-04-19 08:06 30.58479 31.29807 34925 ft 460 kts 182°
2026-04-19 08:07 30.52165 31.30973 34926 ft 460 kts 182°
2026-04-19 08:07 30.45843 31.32138 34932 ft 459 kts 182°
2026-04-19 08:08 30.39532 31.33290 34934 ft 460 kts 182°
2026-04-19 08:08 30.33216 31.34439 34930 ft 459 kts 183°
2026-04-19 08:09 30.26903 31.35586 34935 ft 459 kts 183°
2026-04-19 08:09 30.20588 31.36734 34945 ft 460 kts 183°
2026-04-19 08:10 30.14265 31.37892 34942 ft 462 kts 181°
2026-04-19 08:10 30.11104 31.38856 34934 ft 477 kts 172°
2026-04-19 08:10 30.08000 31.40337 34932 ft 489 kts 166°
2026-04-19 08:10 30.05016 31.42223 34933 ft 503 kts 158°
2026-04-19 08:11 30.02138 31.44583 34945 ft 509 kts 155°
2026-04-19 08:11 29.96467 31.49530 34942 ft 511 kts 154°
2026-04-19 08:12 29.90789 31.54493 34925 ft 511 kts 155°
2026-04-19 08:12 29.85092 31.59388 34952 ft 511 kts 155°
2026-04-19 08:13 29.79375 31.64248 34936 ft 511 kts 155°
2026-04-19 08:13 29.73648 31.69104 34954 ft 512 kts 155°
2026-04-19 08:14 29.67904 31.73972 34953 ft 513 kts 155°
2026-04-19 08:14 29.59322 31.81239 34940 ft 513 kts 155°
2026-04-19 08:15 29.53569 31.86102 34964 ft 513 kts 155°
2026-04-19 08:15 29.47818 31.90957 34950 ft 513 kts 156°
2026-04-19 08:16 29.42057 31.95810 34970 ft 514 kts 156°
2026-04-19 08:16 29.36336 32.00623 34958 ft 514 kts 156°
2026-04-19 08:17 29.30643 32.05408 34976 ft 514 kts 156°
2026-04-19 08:17 29.24778 32.10329 34948 ft 514 kts 156°
2026-04-19 08:18 29.18985 32.15184 34958 ft 514 kts 156°
2026-04-19 08:18 29.13212 32.20013 34964 ft 514 kts 156°
2026-04-19 08:19 29.07440 32.24836 34958 ft 513 kts 156°
2026-04-19 08:19 29.01677 32.29645 34955 ft 513 kts 156°
2026-04-19 08:20 28.95912 32.34447 34964 ft 513 kts 156°
2026-04-19 08:20 28.90191 32.39207 34960 ft 512 kts 156°
2026-04-19 08:21 28.84416 32.44001 34942 ft 513 kts 156°
2026-04-19 08:21 28.78638 32.48796 34953 ft 514 kts 156°
2026-04-19 08:22 28.72849 32.53593 34956 ft 514 kts 156°
2026-04-19 08:22 28.67102 32.58348 34963 ft 514 kts 156°
2026-04-19 08:23 28.61321 32.63124 34942 ft 514 kts 157°
2026-04-19 08:23 28.55530 32.67901 34910 ft 514 kts 157°
2026-04-19 08:24 28.49737 32.72674 34950 ft 514 kts 157°
2026-04-19 08:24 28.43933 32.77448 34950 ft 515 kts 157°
2026-04-19 08:25 28.38135 32.82211 34948 ft 516 kts 157°
2026-04-19 08:25 28.32337 32.86969 34944 ft 517 kts 157°
2026-04-19 08:26 28.26452 32.91792 34932 ft 517 kts 157°
2026-04-19 08:26 28.20620 32.96565 34926 ft 517 kts 157°
2026-04-19 08:27 28.14766 33.01349 34937 ft 518 kts 157°
2026-04-19 08:27 28.08921 33.06119 34932 ft 519 kts 157°
2026-04-19 08:28 28.03113 33.10853 34935 ft 519 kts 157°
2026-04-19 08:28 27.97305 33.15578 34927 ft 519 kts 157°
2026-04-19 08:29 27.91358 33.20410 34879 ft 519 kts 157°
2026-04-19 08:29 27.85491 33.25172 34921 ft 519 kts 157°
2026-04-19 08:30 27.79648 33.29907 34926 ft 519 kts 157°
2026-04-19 08:30 27.73760 33.34675 34917 ft 520 kts 157°
2026-04-19 08:31 27.67868 33.39438 34921 ft 519 kts 158°
2026-04-19 08:31 27.62005 33.44171 34918 ft 520 kts 157°
2026-04-19 08:32 27.56186 33.48866 34907 ft 520 kts 157°
2026-04-19 08:32 27.50248 33.53644 34904 ft 519 kts 157°
2026-04-19 08:33 27.44334 33.58387 34905 ft 519 kts 157°
2026-04-19 08:33 27.38582 33.62995 34915 ft 518 kts 157°
2026-04-19 08:34 27.32669 33.67725 34915 ft 518 kts 157°
2026-04-19 08:34 27.26745 33.72462 34880 ft 518 kts 157°
2026-04-19 08:35 27.20923 33.77302 34897 ft 531 kts 149°
2026-04-19 08:35 27.18354 33.80372 34924 ft 550 kts 139°
2026-04-19 08:35 27.16173 33.83972 34920 ft 566 kts 129°
2026-04-19 08:36 27.14492 33.88042 34924 ft 579 kts 120°
2026-04-19 08:36 27.13052 33.92280 34926 ft 582 kts 118°
2026-04-19 08:36 27.10216 34.00807 34901 ft 583 kts 119°
2026-04-19 08:37 27.07242 34.09272 34904 ft 582 kts 120°
2026-04-19 08:37 27.04234 34.17607 34906 ft 582 kts 120°
2026-04-19 08:38 27.01174 34.26129 34896 ft 583 kts 120°
2026-04-19 08:38 26.98169 34.34520 34905 ft 582 kts 120°
2026-04-19 08:39 26.95151 34.42931 34906 ft 582 kts 120°
2026-04-19 08:39 26.92129 34.51335 34890 ft 581 kts 120°
2026-04-19 08:40 26.89103 34.59730 34904 ft 581 kts 120°
2026-04-19 08:40 26.86073 34.68115 34908 ft 581 kts 120°
2026-04-19 08:41 26.83040 34.76489 34894 ft 581 kts 120°
2026-04-19 08:41 26.79998 34.84875 34907 ft 581 kts 120°
2026-04-19 08:42 26.76953 34.93252 34907 ft 581 kts 120°
2026-04-19 08:42 26.73896 35.01615 34885 ft 581 kts 120°
2026-04-19 08:43 26.70841 35.09939 34903 ft 581 kts 120°
2026-04-19 08:43 26.67768 35.18303 34902 ft 581 kts 120°
2026-04-19 08:44 26.64695 35.26652 34882 ft 581 kts 120°
2026-04-19 08:44 26.61613 35.35011 34893 ft 581 kts 120°
2026-04-19 08:45 26.58528 35.43359 34894 ft 581 kts 120°
2026-04-19 08:45 26.55432 35.51687 34880 ft 580 kts 120°
2026-04-19 08:46 26.52271 35.59959 34889 ft 579 kts 121°
2026-04-19 08:46 26.49082 35.68233 34891 ft 579 kts 121°
2026-04-19 08:47 26.45905 35.76492 34872 ft 579 kts 121°
2026-04-19 08:47 26.42759 35.84682 34882 ft 577 kts 121°
2026-04-19 08:48 26.39589 35.92919 34886 ft 577 kts 121°
2026-04-19 08:48 26.36417 36.01137 34886 ft 577 kts 121°
2026-04-19 08:49 26.33235 36.09365 34885 ft 577 kts 121°
2026-04-19 08:49 26.30051 36.17584 34879 ft 578 kts 121°
2026-04-19 08:50 26.26858 36.25806 34853 ft 578 kts 121°
2026-04-19 08:50 26.23665 36.34017 34858 ft 577 kts 121°
2026-04-19 08:51 26.21006 36.40842 34857 ft 577 kts 121°
2026-04-19 08:51 26.17778 36.49046 34862 ft 575 kts 123°
2026-04-19 08:52 26.14070 36.56819 34883 ft 569 kts 127°
2026-04-19 08:52 26.10202 36.64520 34885 ft 570 kts 127°
2026-04-19 08:53 26.06355 36.72242 34882 ft 570 kts 127°
2026-04-19 08:53 26.02543 36.79966 34879 ft 570 kts 127°
2026-04-19 08:54 25.98722 36.87711 34888 ft 570 kts 127°
2026-04-19 08:54 25.94906 36.95422 34902 ft 571 kts 127°
2026-04-19 08:55 25.91078 37.03138 34874 ft 571 kts 127°
2026-04-19 08:55 25.87234 37.10874 34868 ft 571 kts 127°
2026-04-19 08:56 25.83394 37.18591 34881 ft 572 kts 127°
2026-04-19 08:56 25.79540 37.26323 34857 ft 572 kts 127°
2026-04-19 08:57 25.75710 37.34008 34888 ft 572 kts 127°
2026-04-19 08:57 25.71849 37.41755 34884 ft 572 kts 127°
2026-04-19 08:58 25.67993 37.49484 34883 ft 572 kts 127°
2026-04-19 08:58 25.64138 37.57193 34908 ft 572 kts 127°